Crane Lake, MN

7:54 AM CDT on July 27, 2017 (GMT -0500)
Crane Lake

Weather History for KCDD - December, 2012

Change the Weather History Date:

Wednesday, December 12, 2012

  Actual Average Record
Temperature  
Mean Temperature 7 °F -  
Max Temperature 21 °F 24 °F 44 °F (1998)
Min Temperature -7 °F 9 °F -27 °F (2013)
Degree Days  
Heating Degree Days 58    
Moisture  
Dew Point 6 °F    
Average Humidity 88    
Maximum Humidity 93    
Minimum Humidity 78    
Precipitation  
Precipitation 0.02 in - - ()
Sea Level Pressure  
Sea Level Pressure 29.92 in    
Wind  
Wind Speed 0 mph (ESE)    
Max Wind Speed 4 mph    
Max Gust Speed -    
Visibility 10 miles    
Events      
Averages and records for this station are not official NWS values.
T = Trace of Precipitation, MM = Missing Value Source: NWS Daily Summary

Daily Weather History Graph

Daily Weather History Graph

Search for Another Location

Airport or City:

Trip Planner

Search our weather history database for the weather conditions in past years. The results will help you decide how hot, cold, wet, or windy it might be!

Date:

Astronomy

Dec. 12, 2012 Rise Set
Actual Time 7:52 AM CST 4:15 PM CST
Civil Twilight 7:15 AM CST 4:52 PM CST
Nautical Twilight 6:35 AM CST 5:31 PM CST
Astronomical Twilight 5:57 AM CST 6:09 PM CST
Moon 6:55 AM CST (12/12) 3:54 PM CST (12/12)
Length of Visible Light 9h 36m
Length of Day
8h 23m
Waning Crescent, 1% of the Moon is Illuminated
Dec 12
Waning Crescent
Dec 13
New
Dec 19
First Quarter
Dec 28
Full
Jan 4
Last Quarter

Hourly Weather History & Observations

Time (CST) Temp. Windchill Dew Point Humidity Pressure Visibility Wind Dir Wind Speed Gust Speed Precip Events Conditions
12:04 AM -5.8 °F - -9.4 °F 84% 29.97 in 10.0 mi Calm Calm - N/A   Clear
12:25 AM -5.8 °F - -9.4 °F 84% 29.96 in 10.0 mi Calm Calm - N/A   Clear
12:44 AM -5.8 °F - -9.4 °F 84% 29.96 in 10.0 mi Calm Calm - N/A   Clear
1:04 AM -5.8 °F - -9.4 °F 84% 29.97 in 10.0 mi Calm Calm - N/A   Clear
1:24 AM -7.6 °F - -9.4 °F 92% 29.98 in 10.0 mi Calm Calm - N/A   Clear
1:44 AM -7.6 °F - -9.4 °F 92% 29.98 in 10.0 mi Calm Calm - N/A   Clear
2:04 AM -7.6 °F - -11.2 °F 84% 29.97 in 10.0 mi Calm Calm - N/A   Clear
2:24 AM -7.6 °F - -11.2 °F 84% 29.98 in 10.0 mi Calm Calm - N/A   Clear
2:44 AM -7.6 °F - -11.2 °F 84% 29.99 in 10.0 mi Calm Calm - N/A   Clear
3:04 AM -7.6 °F - -11.2 °F 84% 29.99 in 10.0 mi Calm Calm - N/A   Clear
3:44 AM -5.8 °F - -9.4 °F 84% 29.99 in 10.0 mi Calm Calm - N/A   Clear
4:04 AM -5.8 °F - -7.6 °F 92% 30.00 in 10.0 mi Calm Calm - N/A   Scattered Clouds
4:24 AM -2.2 °F - -7.6 °F 78% 30.00 in 10.0 mi Calm Calm - N/A   Mostly Cloudy
4:44 AM -2.2 °F - -5.8 °F 85% 29.99 in 10.0 mi Calm Calm - N/A   Mostly Cloudy
5:04 AM -2.2 °F - -5.8 °F 85% 29.99 in 10.0 mi Calm Calm - N/A   Overcast
5:24 AM -0.4 °F - -4.0 °F 85% 29.99 in 10.0 mi Calm Calm - N/A   Overcast
5:44 AM -0.4 °F - -4.0 °F 85% 29.99 in 10.0 mi Calm Calm - N/A   Overcast
6:04 AM -0.4 °F - -2.2 °F 92% 29.99 in 10.0 mi Calm Calm - N/A   Overcast
6:24 AM 1.4 °F - -2.2 °F 85% 29.98 in 10.0 mi Calm Calm - N/A   Overcast
6:44 AM 1.4 °F - -2.2 °F 85% 29.98 in 10.0 mi Calm Calm - N/A   Overcast
7:04 AM 1.4 °F - -0.4 °F 92% 29.98 in 10.0 mi Calm Calm - N/A   Overcast
7:24 AM 1.4 °F - -0.4 °F 92% 29.97 in 10.0 mi Calm Calm - N/A   Mostly Cloudy
7:44 AM 3.2 °F - -0.4 °F 85% 29.97 in 10.0 mi Calm Calm - N/A   Mostly Cloudy
8:04 AM 3.2 °F - 1.4 °F 92% 29.96 in 10.0 mi Calm Calm - N/A   Overcast
8:24 AM 3.2 °F - 1.4 °F 92% 29.96 in 10.0 mi Calm Calm - N/A   Mostly Cloudy
8:44 AM 5.0 °F - 1.4 °F 85% 29.97 in 10.0 mi Calm Calm - N/A   Scattered Clouds
9:04 AM 5.0 °F - 1.4 °F 85% 29.96 in 10.0 mi Calm Calm - N/A   Scattered Clouds
9:24 AM 6.8 °F - 3.2 °F 85% 29.96 in 10.0 mi Calm Calm - N/A   Mostly Cloudy
9:44 AM 8.6 °F 2.0 °F 5.0 °F 85% 29.95 in 10.0 mi East 3.5 mph - N/A   Mostly Cloudy
10:04 AM 8.6 °F - 6.8 °F 92% 29.95 in 10.0 mi Calm Calm - N/A   Mostly Cloudy
10:24 AM 10.4 °F - 6.8 °F 85% 29.94 in 10.0 mi Calm Calm - N/A   Overcast
10:44 AM 10.4 °F - 6.8 °F 85% 29.93 in 10.0 mi Calm Calm - N/A   Mostly Cloudy
11:04 AM 12.2 °F - 8.6 °F 85% 29.92 in 10.0 mi Calm Calm - N/A   Overcast
11:24 AM 12.2 °F - 8.6 °F 85% 29.91 in 10.0 mi Calm Calm - N/A   Overcast
11:44 AM 14.0 °F - 10.4 °F 86% 29.90 in 10.0 mi Calm Calm - N/A   Overcast
12:04 PM 15.8 °F 10.2 °F 10.4 °F 79% 29.89 in 10.0 mi NE 3.5 mph - N/A   Overcast
12:24 PM 15.8 °F - 12.2 °F 86% 29.88 in 10.0 mi Calm Calm - N/A   Overcast
12:44 PM 17.6 °F - 12.2 °F 79% 29.87 in 10.0 mi Calm Calm - N/A   Overcast
1:04 PM 17.6 °F 12.3 °F 14.0 °F 86% 29.85 in 10.0 mi East 3.5 mph - N/A   Overcast
1:44 PM 19.4 °F - 15.8 °F 86% 29.83 in 10.0 mi Calm Calm - N/A   Mostly Cloudy
2:04 PM 19.4 °F - 15.8 °F 86% 29.81 in 10.0 mi Calm Calm - N/A   Overcast
2:24 PM 19.4 °F 14.3 °F 17.6 °F 93% 29.84 in 10.0 mi SSE 3.5 mph - N/A   Overcast
2:44 PM 21.2 °F - 17.6 °F 86% 29.83 in 10.0 mi Calm Calm - N/A   Overcast
3:04 PM 21.2 °F - 17.6 °F 86% 29.83 in 10.0 mi Calm Calm - N/A   Overcast
3:24 PM 21.2 °F - 17.6 °F 86% 29.83 in 10.0 mi Calm Calm - N/A   Overcast
3:44 PM 21.2 °F 16.4 °F 19.4 °F 93% 29.84 in 10.0 mi SSE 3.5 mph - N/A   Overcast
4:04 PM 21.2 °F - 19.4 °F 93% 29.84 in 10.0 mi Calm Calm - N/A   Overcast
4:24 PM 21.2 °F - 19.4 °F 93% 29.84 in 10.0 mi Calm Calm - N/A   Overcast
4:44 PM 21.2 °F - 19.4 °F 93% 29.85 in 10.0 mi Calm Calm - N/A   Overcast
5:04 PM 21.2 °F - 19.4 °F 93% 29.85 in 10.0 mi Calm Calm - N/A   Overcast
5:24 PM 21.2 °F - 19.4 °F 93% 29.86 in 10.0 mi Calm Calm - 0.01 in   Overcast
5:44 PM 21.2 °F - 17.6 °F 86% 29.85 in 10.0 mi Calm Calm - 0.02 in   Overcast
6:44 PM 21.2 °F - 17.6 °F 86% 29.86 in 10.0 mi Calm Calm - N/A   Overcast
7:04 PM 21.2 °F - 17.6 °F 86% 29.87 in 10.0 mi Calm Calm - N/A   Overcast
7:44 PM 21.2 °F - 17.6 °F 86% 29.87 in 10.0 mi Calm Calm - N/A   Overcast
8:04 PM 21.2 °F - 17.6 °F 86% 29.87 in 10.0 mi Calm Calm - N/A   Overcast
8:44 PM 21.2 °F - 17.6 °F 86% 29.87 in 10.0 mi Calm Calm - N/A   Overcast
9:04 PM 19.4 °F - 17.6 °F 93% 29.87 in 10.0 mi Calm Calm - N/A   Overcast
9:24 PM 19.4 °F - 17.6 °F 93% 29.87 in 10.0 mi Calm Calm - N/A   Overcast
9:44 PM 19.4 °F - 17.6 °F 93% 29.88 in 10.0 mi Calm Calm - N/A   Overcast
10:04 PM 19.4 °F - 15.8 °F 86% 29.89 in 10.0 mi Calm Calm - N/A   Mostly Cloudy
10:24 PM 17.6 °F - 15.8 °F 93% 29.90 in 10.0 mi Calm Calm - N/A   Overcast
10:44 PM 17.6 °F - 15.8 °F 93% 29.90 in 10.0 mi Calm Calm - N/A   Overcast
11:04 PM 17.6 °F - 15.8 °F 93% 29.91 in 10.0 mi Calm Calm - N/A   Mostly Cloudy
11:24 PM 17.6 °F - 15.8 °F 93% 29.91 in 10.0 mi Calm Calm - N/A   Overcast
11:44 PM 17.6 °F - 15.8 °F 93% 29.91 in 10.0 mi Calm Calm - N/A   Overcast